Climatologie pour Saint-Brevin les Pins
Jour • Résumé pour avril 24, 2017 Système :  Métrique    Anglais   Mixte
« - 1 jour
+ 1 jour »
Jour Semaine Mois Année Personnalisé
  Maximum : Minimum : Moyenne :
Température sous abri : 19.1 °C 2.8 °C 11.1 °C
Point de rosée : 10.1 °C 2.0 °C 5.6 °C
Humidité : 95 % 41 % 72 %
Vitesse du vent : 22.5 km/h 0.0 km/h 3.8 km/h
Rafale : 27.4 km/h - -
Direction :- - SE
Pression : 1021.2 hPa 1013.4 hPa -
Précipitations : 0.0 mm    
Historical Graphs
 
 
Tableau de données pour avril 24, 2017
Heure Tempé Pt rosée Pression Vent Vitesse Rafale Humidité Taux pluie (/hr) Soleil
00:00 9.2 °C 4.2 °C 1021.2 hPa East 3.2 km/h 4.8 km/h 71 % 0.0 mm 0 W/m2
00:10 9.3 °C 4.3 °C 1021.2 hPa East 1.6 km/h 4.8 km/h 71 % 0.0 mm 0 W/m2
00:15 9.2 °C 4.2 °C 1021.2 hPa East 8.0 km/h 8.0 km/h 71 % 0.0 mm 0 W/m2
00:20 9.2 °C 4.2 °C 1021.2 hPa ESE 3.2 km/h 8.0 km/h 71 % 0.0 mm 0 W/m2
00:25 9.3 °C 4.1 °C 1021.2 hPa East 3.2 km/h 8.0 km/h 70 % 0.0 mm 0 W/m2
00:30 9.2 °C 4.0 °C 1021.2 hPa East 4.8 km/h 8.0 km/h 70 % 0.0 mm 0 W/m2
00:35 9.3 °C 4.1 °C 1021.2 hPa Calm   8.0 km/h 70 % 0.0 mm 0 W/m2
00:45 9.3 °C 4.1 °C 1021.2 hPa ESE 4.8 km/h 9.7 km/h 70 % 0.0 mm 0 W/m2
00:50 9.2 °C 4.0 °C 1020.9 hPa Calm   8.0 km/h 70 % 0.0 mm 0 W/m2
00:55 8.7 °C 3.8 °C 1021.2 hPa Calm   4.8 km/h 71 % 0.0 mm 0 W/m2
01:00 8.5 °C 3.7 °C 1020.9 hPa Calm   4.8 km/h 72 % 0.0 mm 0 W/m2
01:10 7.6 °C 3.5 °C 1021.2 hPa Calm   3.2 km/h 75 % 0.0 mm 0 W/m2
01:15 7.2 °C 3.5 °C 1021.2 hPa Calm   1.6 km/h 77 % 0.0 mm 0 W/m2
01:20 6.9 °C 3.6 °C 1020.9 hPa Calm     79 % 0.0 mm 0 W/m2
01:25 6.5 °C 3.5 °C 1020.9 hPa Calm     81 % 0.0 mm 0 W/m2
01:30 6.2 °C 3.4 °C 1020.9 hPa Calm   1.6 km/h 82 % 0.0 mm 0 W/m2
01:35 5.9 °C 3.4 °C 1020.9 hPa Calm   1.6 km/h 84 % 0.0 mm 0 W/m2
01:40 5.7 °C 3.4 °C 1020.9 hPa Calm   1.6 km/h 85 % 0.0 mm 0 W/m2
01:45 5.7 °C 3.3 °C 1020.9 hPa Calm   1.6 km/h 85 % 0.0 mm 0 W/m2
01:50 5.6 °C 3.2 °C 1020.9 hPa Calm   4.8 km/h 85 % 0.0 mm 0 W/m2
01:55 5.5 °C 3.2 °C 1020.9 hPa Calm   4.8 km/h 85 % 0.0 mm 0 W/m2
02:00 5.4 °C 3.3 °C 1020.9 hPa Calm   3.2 km/h 86 % 0.0 mm 0 W/m2
02:05 5.3 °C 3.2 °C 1020.9 hPa NE 1.6 km/h 4.8 km/h 86 % 0.0 mm 0 W/m2
02:10 5.3 °C 3.3 °C 1020.9 hPa Calm   4.8 km/h 87 % 0.0 mm 0 W/m2
02:15 5.3 °C 3.3 °C 1020.5 hPa Calm   4.8 km/h 87 % 0.0 mm 0 W/m2
02:20 5.2 °C 3.3 °C 1020.9 hPa NNE 1.6 km/h 4.8 km/h 88 % 0.0 mm 0 W/m2
02:25 5.2 °C 3.4 °C 1020.5 hPa Calm   8.0 km/h 88 % 0.0 mm 0 W/m2
02:30 5.2 °C 3.3 °C 1020.5 hPa North 1.6 km/h 8.0 km/h 88 % 0.0 mm 0 W/m2
02:35 5.1 °C 3.2 °C 1020.5 hPa Calm   4.8 km/h 88 % 0.0 mm 0 W/m2
02:40 5.1 °C 3.4 °C 1020.5 hPa Calm   8.0 km/h 89 % 0.0 mm 0 W/m2
02:45 5.1 °C 3.2 °C 1020.5 hPa NE 1.6 km/h 8.0 km/h 88 % 0.0 mm 0 W/m2
02:50 5.0 °C 3.3 °C 1020.5 hPa Calm   3.2 km/h 89 % 0.0 mm 0 W/m2
02:55 5.0 °C 3.3 °C 1020.5 hPa ENE 1.6 km/h 4.8 km/h 89 % 0.0 mm 0 W/m2
03:00 5.1 °C 3.4 °C 1020.5 hPa Calm   6.4 km/h 89 % 0.0 mm 0 W/m2
03:05 5.0 °C 3.3 °C 1020.2 hPa Calm   6.4 km/h 89 % 0.0 mm 0 W/m2
03:10 4.9 °C 3.2 °C 1020.2 hPa Calm   4.8 km/h 89 % 0.0 mm 0 W/m2
03:15 4.8 °C 3.2 °C 1020.2 hPa Calm   4.8 km/h 89 % 0.0 mm 0 W/m2
03:20 4.9 °C 3.3 °C 1020.2 hPa Calm   4.8 km/h 89 % 0.0 mm 0 W/m2
03:25 4.8 °C 3.2 °C 1020.2 hPa NE 1.6 km/h 3.2 km/h 89 % 0.0 mm 0 W/m2
03:30 4.7 °C 3.1 °C 1020.2 hPa Calm   3.2 km/h 89 % 0.0 mm 0 W/m2
03:35 4.7 °C 3.2 °C 1019.9 hPa Calm   3.2 km/h 90 % 0.0 mm 0 W/m2
03:40 4.6 °C 3.1 °C 1019.9 hPa Calm   3.2 km/h 90 % 0.0 mm 0 W/m2
03:45 4.6 °C 3.1 °C 1019.9 hPa Calm   3.2 km/h 90 % 0.0 mm 0 W/m2
03:50 4.4 °C 2.9 °C 1019.9 hPa NE 1.6 km/h 3.2 km/h 90 % 0.0 mm 0 W/m2
03:55 4.3 °C 2.8 °C 1019.9 hPa Calm   3.2 km/h 90 % 0.0 mm 0 W/m2
04:00 4.3 °C 3.0 °C 1019.9 hPa Calm   3.2 km/h 91 % 0.0 mm 0 W/m2
04:05 4.2 °C 2.9 °C 1019.9 hPa Calm   1.6 km/h 91 % 0.0 mm 0 W/m2
04:10 4.2 °C 2.8 °C 1019.5 hPa Calm   1.6 km/h 91 % 0.0 mm 0 W/m2
04:15 4.1 °C 2.8 °C 1019.9 hPa Calm   1.6 km/h 91 % 0.0 mm 0 W/m2
04:20 4.1 °C 2.8 °C 1019.5 hPa Calm   1.6 km/h 91 % 0.0 mm 0 W/m2
04:30 3.8 °C 2.4 °C 1019.5 hPa Calm   1.6 km/h 91 % 0.0 mm 0 W/m2
04:35 3.7 °C 2.5 °C 1019.5 hPa NNE 3.2 km/h 3.2 km/h 92 % 0.0 mm 0 W/m2
04:40 3.7 °C 2.5 °C 1019.5 hPa Calm   3.2 km/h 92 % 0.0 mm 0 W/m2
04:45 3.7 °C 2.5 °C 1019.5 hPa Calm   4.8 km/h 92 % 0.0 mm 0 W/m2
04:50 3.7 °C 2.5 °C 1019.5 hPa Calm   4.8 km/h 92 % 0.0 mm 0 W/m2
04:55 3.7 °C 2.5 °C 1019.5 hPa NE 3.2 km/h 6.4 km/h 92 % 0.0 mm 0 W/m2
05:00 3.8 °C 2.6 °C 1019.5 hPa NE 1.6 km/h 6.4 km/h 92 % 0.0 mm 0 W/m2
05:05 3.9 °C 2.7 °C 1019.5 hPa Calm   4.8 km/h 92 % 0.0 mm 0 W/m2
05:10 3.9 °C 2.7 °C 1019.5 hPa Calm   4.8 km/h 92 % 0.0 mm 0 W/m2
05:15 3.9 °C 2.8 °C 1019.2 hPa NE 3.2 km/h 3.2 km/h 92 % 0.0 mm 0 W/m2
05:20 3.9 °C 2.7 °C 1019.2 hPa Calm   3.2 km/h 92 % 0.0 mm 0 W/m2
05:25 3.9 °C 2.7 °C 1019.2 hPa Calm   3.2 km/h 92 % 0.0 mm 0 W/m2
05:30 3.8 °C 2.6 °C 1019.2 hPa Calm   1.6 km/h 92 % 0.0 mm 0 W/m2
05:35 3.7 °C 2.5 °C 1019.2 hPa Calm   3.2 km/h 92 % 0.0 mm 0 W/m2
05:40 3.6 °C 2.4 °C 1019.2 hPa NE 1.6 km/h 4.8 km/h 92 % 0.0 mm 0 W/m2
05:45 3.6 °C 2.4 °C 1019.2 hPa NE 1.6 km/h 4.8 km/h 92 % 0.0 mm 0 W/m2
05:50 3.5 °C 2.5 °C 1019.2 hPa Calm   3.2 km/h 93 % 0.0 mm 0 W/m2
05:55 3.5 °C 2.5 °C 1019.2 hPa Calm   3.2 km/h 93 % 0.0 mm 0 W/m2
06:00 3.5 °C 2.5 °C 1018.8 hPa Calm   3.2 km/h 93 % 0.0 mm 0 W/m2
06:05 3.4 °C 2.4 °C 1018.8 hPa Calm   1.6 km/h 93 % 0.0 mm 0 W/m2
06:10 3.4 °C 2.4 °C 1018.8 hPa Calm   1.6 km/h 93 % 0.0 mm 0 W/m2
06:15 3.4 °C 2.4 °C 1018.8 hPa Calm   3.2 km/h 93 % 0.0 mm 0 W/m2
06:20 3.4 °C 2.4 °C 1018.8 hPa Calm   3.2 km/h 93 % 0.0 mm 0 W/m2
06:25 3.3 °C 2.5 °C 1018.8 hPa Calm   1.6 km/h 94 % 0.0 mm 0 W/m2
06:30 3.3 °C 2.4 °C 1018.8 hPa Calm   1.6 km/h 94 % 0.0 mm 0 W/m2
06:35 3.2 °C 2.3 °C 1018.8 hPa Calm   1.6 km/h 94 % 0.0 mm 0 W/m2
06:40 3.1 °C 2.2 °C 1018.8 hPa Calm   1.6 km/h 94 % 0.0 mm 0 W/m2
06:45 3.0 °C 2.1 °C 1018.8 hPa NE 1.6 km/h 1.6 km/h 94 % 0.0 mm 0 W/m2
06:50 2.9 °C 2.1 °C 1018.8 hPa Calm   1.6 km/h 94 % 0.0 mm 0 W/m2
06:55 2.8 °C 2.0 °C 1018.8 hPa Calm   1.6 km/h 94 % 0.0 mm 0 W/m2
07:00 2.9 °C 2.0 °C 1018.8 hPa Calm   4.8 km/h 94 % 0.0 mm 0 W/m2
07:05 2.9 °C 2.1 °C 1018.8 hPa NE 1.6 km/h 4.8 km/h 94 % 0.0 mm 0 W/m2
07:10 2.8 °C 2.0 °C 1018.8 hPa Calm   1.6 km/h 94 % 0.0 mm 5 W/m2
07:15 2.9 °C 2.1 °C 1018.8 hPa Calm     94 % 0.0 mm 9 W/m2
07:20 2.9 °C 2.1 °C 1018.8 hPa Calm     94 % 0.0 mm 11 W/m2
07:25 2.9 °C 2.1 °C 1018.8 hPa Calm     94 % 0.0 mm 12 W/m2
07:30 2.8 °C 2.0 °C 1019.2 hPa Calm     94 % 0.0 mm 14 W/m2
07:35 2.9 °C 2.2 °C 1019.2 hPa Calm   3.2 km/h 95 % 0.0 mm 19 W/m2
07:40 2.9 °C 2.1 °C 1019.2 hPa NE 1.6 km/h 3.2 km/h 94 % 0.0 mm 23 W/m2
07:45 3.2 °C 2.4 °C 1019.2 hPa NE 1.6 km/h 3.2 km/h 95 % 0.0 mm 25 W/m2
07:50 3.4 °C 2.7 °C 1018.8 hPa NE 1.6 km/h 4.8 km/h 95 % 0.0 mm 26 W/m2
07:55 3.6 °C 2.8 °C 1019.2 hPa Calm   4.8 km/h 95 % 0.0 mm 30 W/m2
08:00 3.9 °C 3.2 °C 1018.8 hPa Calm   4.8 km/h 95 % 0.0 mm 33 W/m2
08:05 4.2 °C 3.4 °C 1019.2 hPa NNE 1.6 km/h 4.8 km/h 95 % 0.0 mm 37 W/m2
08:10 4.6 °C 3.8 °C 1018.8 hPa Calm   4.8 km/h 95 % 0.0 mm 39 W/m2
08:15 4.9 °C 4.2 °C 1019.2 hPa NNE 3.2 km/h 4.8 km/h 95 % 0.0 mm 42 W/m2
08:20 5.2 °C 4.3 °C 1019.2 hPa NNE 1.6 km/h 4.8 km/h 94 % 0.0 mm 44 W/m2
08:25 5.6 °C 4.7 °C 1018.8 hPa NNE 1.6 km/h 6.4 km/h 94 % 0.0 mm 47 W/m2
08:30 5.9 °C 4.7 °C 1019.2 hPa NE 4.8 km/h 6.4 km/h 92 % 0.0 mm 186 W/m2
08:35 6.4 °C 5.2 °C 1019.2 hPa NE 4.8 km/h 6.4 km/h 92 % 0.0 mm 204 W/m2
08:40 6.8 °C 5.1 °C 1019.2 hPa NNE 3.2 km/h 6.4 km/h 89 % 0.0 mm 221 W/m2
08:45 7.1 °C 5.2 °C 1019.2 hPa NNE 4.8 km/h 9.7 km/h 88 % 0.0 mm 239 W/m2
08:50 7.4 °C 5.3 °C 1019.2 hPa Calm   9.7 km/h 86 % 0.0 mm 258 W/m2
08:55 7.8 °C 5.4 °C 1019.2 hPa NNE 4.8 km/h 9.7 km/h 85 % 0.0 mm 274 W/m2
09:00 8.0 °C 5.1 °C 1019.2 hPa Calm   11.3 km/h 82 % 0.0 mm 292 W/m2
09:05 8.3 °C 5.3 °C 1019.2 hPa Calm   11.3 km/h 81 % 0.0 mm 308 W/m2
09:10 8.6 °C 5.4 °C 1019.2 hPa NE 3.2 km/h 8.0 km/h 80 % 0.0 mm 313 W/m2
09:15 9.0 °C 5.7 °C 1019.2 hPa ENE 3.2 km/h 8.0 km/h 80 % 0.0 mm 315 W/m2
09:20 9.3 °C 5.7 °C 1019.2 hPa NE 1.6 km/h 8.0 km/h 78 % 0.0 mm 329 W/m2
09:25 9.6 °C 6.0 °C 1019.2 hPa Calm   11.3 km/h 78 % 0.0 mm 352 W/m2
09:30 9.8 °C 5.7 °C 1019.2 hPa ENE 6.4 km/h 11.3 km/h 76 % 0.0 mm 410 W/m2
09:35 10.0 °C 6.0 °C 1019.2 hPa Calm   9.7 km/h 76 % 0.0 mm 422 W/m2
09:40 10.3 °C 5.9 °C 1019.2 hPa North 1.6 km/h 8.0 km/h 74 % 0.0 mm 410 W/m2
09:45 10.3 °C 5.6 °C 1019.2 hPa Calm   11.3 km/h 73 % 0.0 mm 332 W/m2
09:50 10.2 °C 5.5 °C 1019.2 hPa NE 1.6 km/h 11.3 km/h 73 % 0.0 mm 271 W/m2
09:55 10.3 °C 6.1 °C 1019.2 hPa North 4.8 km/h 9.7 km/h 75 % 0.0 mm 294 W/m2
10:00 10.4 °C 6.0 °C 1019.2 hPa Calm   11.3 km/h 74 % 0.0 mm 383 W/m2
10:05 10.8 °C 6.3 °C 1018.8 hPa North 3.2 km/h 11.3 km/h 74 % 0.0 mm 345 W/m2
10:10 11.0 °C 6.5 °C 1018.8 hPa North 3.2 km/h 11.3 km/h 74 % 0.0 mm 394 W/m2
10:15 11.2 °C 6.5 °C 1018.8 hPa NE 8.0 km/h 12.9 km/h 73 % 0.0 mm 524 W/m2
10:20 11.4 °C 6.2 °C 1018.8 hPa ENE 3.2 km/h 12.9 km/h 70 % 0.0 mm 480 W/m2
10:25 11.7 °C 6.6 °C 1018.8 hPa ENE 11.3 km/h 11.3 km/h 71 % 0.0 mm 496 W/m2
10:30 11.8 °C 6.3 °C 1018.8 hPa North 6.4 km/h 11.3 km/h 69 % 0.0 mm 420 W/m2
10:35 11.7 °C 6.0 °C 1018.8 hPa NE 6.4 km/h 12.9 km/h 68 % 0.0 mm 401 W/m2
10:40 11.8 °C 6.1 °C 1018.8 hPa North 3.2 km/h 12.9 km/h 68 % 0.0 mm 399 W/m2
10:45 12.1 °C 6.6 °C 1018.8 hPa NNE 4.8 km/h 12.9 km/h 69 % 0.0 mm 573 W/m2
10:50 12.8 °C 6.8 °C 1018.8 hPa Calm   12.9 km/h 67 % 0.0 mm 591 W/m2
10:55 13.1 °C 6.4 °C 1018.8 hPa NE 4.8 km/h 12.9 km/h 64 % 0.0 mm 594 W/m2
11:00 13.1 °C 6.4 °C 1018.8 hPa ENE 3.2 km/h 11.3 km/h 64 % 0.0 mm 628 W/m2
11:05 13.3 °C 6.8 °C 1018.8 hPa NNW 3.2 km/h 11.3 km/h 65 % 0.0 mm 610 W/m2
11:10 13.7 °C 6.3 °C 1018.8 hPa Calm   14.5 km/h 61 % 0.0 mm 571 W/m2
11:15 13.9 °C 7.2 °C 1018.8 hPa NW 3.2 km/h 14.5 km/h 64 % 0.0 mm 656 W/m2
11:20 14.1 °C 6.4 °C 1018.5 hPa East 9.7 km/h 12.9 km/h 60 % 0.0 mm 708 W/m2
11:25 14.3 °C 6.4 °C 1018.5 hPa NE 3.2 km/h 16.1 km/h 59 % 0.0 mm 747 W/m2
11:30 14.3 °C 6.6 °C 1018.5 hPa NE 4.8 km/h 17.7 km/h 60 % 0.0 mm 765 W/m2
11:35 14.8 °C 6.6 °C 1018.5 hPa ENE 4.8 km/h 17.7 km/h 58 % 0.0 mm 693 W/m2
11:40 14.7 °C 6.0 °C 1018.5 hPa NE 9.7 km/h 14.5 km/h 56 % 0.0 mm 359 W/m2
11:45 14.1 °C 6.0 °C 1018.5 hPa NNE 8.0 km/h 14.5 km/h 58 % 0.0 mm 529 W/m2
11:50 14.1 °C 5.7 °C 1018.5 hPa ENE 4.8 km/h 16.1 km/h 57 % 0.0 mm 710 W/m2
11:55 14.7 °C 7.0 °C 1018.2 hPa NE 4.8 km/h 16.1 km/h 60 % 0.0 mm 513 W/m2
12:00 15.4 °C 6.4 °C 1018.2 hPa NE 8.0 km/h 16.1 km/h 55 % 0.0 mm 773 W/m2
12:05 15.2 °C 5.9 °C 1018.2 hPa North 8.0 km/h 16.1 km/h 54 % 0.0 mm 782 W/m2
12:10 15.7 °C 7.4 °C 1018.2 hPa NE 9.7 km/h 14.5 km/h 58 % 0.0 mm 802 W/m2
12:15 16.0 °C 6.1 °C 1018.2 hPa NNE 3.2 km/h 16.1 km/h 52 % 0.0 mm 824 W/m2
12:20 16.3 °C 6.4 °C 1018.2 hPa NNE 8.0 km/h 19.3 km/h 52 % 0.0 mm 780 W/m2
12:25 15.9 °C 6.3 °C 1018.2 hPa NNW 8.0 km/h 19.3 km/h 53 % 0.0 mm 624 W/m2
12:30 16.2 °C 7.4 °C 1017.8 hPa NE 14.5 km/h 19.3 km/h 56 % 0.0 mm 851 W/m2
12:35 15.7 °C 6.4 °C 1017.8 hPa North 9.7 km/h 17.7 km/h 54 % 0.0 mm 359 W/m2
12:40 16.0 °C 7.0 °C 1017.8 hPa NE 8.0 km/h 20.9 km/h 55 % 0.0 mm 791 W/m2
12:45 16.1 °C 6.2 °C 1017.8 hPa ENE 11.3 km/h 20.9 km/h 52 % 0.0 mm 626 W/m2
12:50 16.2 °C 6.9 °C 1017.8 hPa NE 12.9 km/h 20.9 km/h 54 % 0.0 mm 649 W/m2
12:55 16.8 °C 7.1 °C 1017.5 hPa NE 8.0 km/h 19.3 km/h 53 % 0.0 mm 893 W/m2
13:00 16.8 °C 6.6 °C 1017.5 hPa ENE 12.9 km/h 19.3 km/h 51 % 0.0 mm 840 W/m2
13:05 16.8 °C 7.2 °C 1017.5 hPa North 3.2 km/h 17.7 km/h 53 % 0.0 mm 847 W/m2
13:10 16.8 °C 6.6 °C 1017.5 hPa NE 4.8 km/h 22.5 km/h 51 % 0.0 mm 895 W/m2
13:15 16.8 °C 6.3 °C 1017.5 hPa NNE 6.4 km/h 22.5 km/h 50 % 0.0 mm 928 W/m2
13:20 17.2 °C 7.5 °C 1017.2 hPa NE 6.4 km/h 20.9 km/h 53 % 0.0 mm 937 W/m2
13:25 17.1 °C 5.6 °C 1017.2 hPa SE 3.2 km/h 20.9 km/h 47 % 0.0 mm 956 W/m2
13:30 17.6 °C 7.1 °C 1017.2 hPa NE 8.0 km/h 20.9 km/h 50 % 0.0 mm 953 W/m2
13:40 16.6 °C 6.7 °C 1016.8 hPa ENE 9.7 km/h 16.1 km/h 52 % 0.0 mm 930 W/m2
13:45 17.6 °C 7.6 °C 1016.8 hPa East 12.9 km/h 16.1 km/h 52 % 0.0 mm 756 W/m2
13:50 17.8 °C 6.6 °C 1016.8 hPa NNE 3.2 km/h 16.1 km/h 48 % 0.0 mm 930 W/m2
13:55 18.2 °C 7.3 °C 1016.8 hPa NE 14.5 km/h 17.7 km/h 49 % 0.0 mm 914 W/m2
14:00 17.8 °C 6.6 °C 1016.8 hPa ENE 8.0 km/h 22.5 km/h 48 % 0.0 mm 888 W/m2
14:05 17.6 °C 6.1 °C 1016.5 hPa ENE 12.9 km/h 22.5 km/h 47 % 0.0 mm 944 W/m2
14:10 17.6 °C 6.1 °C 1016.5 hPa NE 22.5 km/h 22.5 km/h 47 % 0.0 mm 591 W/m2
14:15 17.8 °C 7.2 °C 1016.5 hPa ENE 12.9 km/h 27.4 km/h 50 % 0.0 mm 853 W/m2
14:20 17.3 °C 6.8 °C 1016.5 hPa NE 11.3 km/h 27.4 km/h 50 % 0.0 mm 468 W/m2
14:25 17.2 °C 5.1 °C 1016.5 hPa NE 8.0 km/h 22.5 km/h 45 % 0.0 mm 758 W/m2
14:30 17.5 °C 6.4 °C 1016.1 hPa NE 4.8 km/h 22.5 km/h 48 % 0.0 mm 872 W/m2
14:35 17.8 °C 6.3 °C 1016.1 hPa NNE 1.6 km/h 17.7 km/h 47 % 0.0 mm 853 W/m2
14:40 17.7 °C 5.9 °C 1016.1 hPa ESE 12.9 km/h 17.7 km/h 46 % 0.0 mm 849 W/m2
14:45 17.7 °C 6.2 °C 1016.1 hPa East 8.0 km/h 17.7 km/h 47 % 0.0 mm 800 W/m2
14:50 17.9 °C 7.1 °C 1016.1 hPa NE 4.8 km/h 17.7 km/h 49 % 0.0 mm 810 W/m2
14:55 18.6 °C 7.3 °C 1015.8 hPa ENE 6.4 km/h 14.5 km/h 48 % 0.0 mm 740 W/m2
15:00 18.2 °C 7.0 °C 1015.8 hPa NNE 6.4 km/h 16.1 km/h 48 % 0.0 mm 596 W/m2
15:05 18.2 °C 7.3 °C 1015.8 hPa ENE 6.4 km/h 16.1 km/h 49 % 0.0 mm 722 W/m2
15:10 18.4 °C 6.3 °C 1015.8 hPa North 6.4 km/h 12.9 km/h 45 % 0.0 mm 777 W/m2
15:15 18.3 °C 7.4 °C 1015.8 hPa ENE 8.0 km/h 14.5 km/h 49 % 0.0 mm 761 W/m2
15:20 18.3 °C 6.8 °C 1015.8 hPa ENE 3.2 km/h 14.5 km/h 47 % 0.0 mm 733 W/m2
15:25 18.3 °C 7.1 °C 1015.8 hPa NNE 1.6 km/h 19.3 km/h 48 % 0.0 mm 731 W/m2
15:30 18.7 °C 8.9 °C 1015.8 hPa North 8.0 km/h 19.3 km/h 53 % 0.0 mm 715 W/m2
15:35 18.8 °C 6.9 °C 1015.8 hPa East 11.3 km/h 16.1 km/h 46 % 0.0 mm 722 W/m2
15:40 18.8 °C 7.3 °C 1015.5 hPa NNE 9.7 km/h 16.1 km/h 47 % 0.0 mm 682 W/m2
15:45 18.7 °C 6.2 °C 1015.5 hPa ENE 12.9 km/h 16.1 km/h 44 % 0.0 mm 715 W/m2
15:50 18.7 °C 7.4 °C 1015.5 hPa ENE 11.3 km/h 22.5 km/h 48 % 0.0 mm 642 W/m2
15:55 18.7 °C 6.8 °C 1015.5 hPa NE 8.0 km/h 22.5 km/h 46 % 0.0 mm 615 W/m2
16:00 18.3 °C 6.2 °C 1015.1 hPa ENE 16.1 km/h 19.3 km/h 45 % 0.0 mm 700 W/m2
16:05 18.3 °C 6.5 °C 1015.1 hPa ENE 4.8 km/h 19.3 km/h 46 % 0.0 mm 650 W/m2
16:10 18.4 °C 6.6 °C 1015.1 hPa ENE 6.4 km/h 16.1 km/h 46 % 0.0 mm 737 W/m2
16:15 18.3 °C 4.8 °C 1015.1 hPa ENE 3.2 km/h 19.3 km/h 41 % 0.0 mm 677 W/m2
16:20 18.6 °C 6.4 °C 1015.1 hPa NNE 12.9 km/h 19.3 km/h 45 % 0.0 mm 606 W/m2
16:30 18.4 °C 6.6 °C 1014.8 hPa Calm   16.1 km/h 46 % 0.0 mm 548 W/m2
16:35 18.5 °C 6.0 °C 1014.8 hPa NNE 3.2 km/h 16.1 km/h 44 % 0.0 mm 531 W/m2
16:40 18.8 °C 6.3 °C 1014.8 hPa ENE 4.8 km/h 17.7 km/h 44 % 0.0 mm 564 W/m2
16:45 18.6 °C 7.1 °C 1014.8 hPa East 6.4 km/h 17.7 km/h 47 % 0.0 mm 512 W/m2
16:50 18.7 °C 7.2 °C 1014.8 hPa NE 4.8 km/h 14.5 km/h 47 % 0.0 mm 536 W/m2
16:55 18.6 °C 5.8 °C 1014.8 hPa North 4.8 km/h 12.9 km/h 43 % 0.0 mm 589 W/m2
17:00 18.6 °C 7.1 °C 1014.8 hPa East 6.4 km/h 14.5 km/h 47 % 0.0 mm 527 W/m2
17:05 18.6 °C 5.7 °C 1014.4 hPa East 14.5 km/h 14.5 km/h 43 % 0.0 mm 494 W/m2
17:10 18.6 °C 6.1 °C 1014.4 hPa NNE 6.4 km/h 16.1 km/h 44 % 0.0 mm 568 W/m2
17:15 18.6 °C 6.4 °C 1014.4 hPa ENE 14.5 km/h 16.1 km/h 45 % 0.0 mm 584 W/m2
17:20 18.7 °C 7.2 °C 1014.4 hPa North 6.4 km/h 14.5 km/h 47 % 0.0 mm 554 W/m2
17:25 19.1 °C 6.2 °C 1014.4 hPa ENE 11.3 km/h 16.1 km/h 43 % 0.0 mm 541 W/m2
17:30 18.8 °C 6.3 °C 1014.4 hPa North 6.4 km/h 17.7 km/h 44 % 0.0 mm 520 W/m2
17:35 18.8 °C 7.2 °C 1014.1 hPa NE 6.4 km/h 17.7 km/h 47 % 0.0 mm 501 W/m2
17:40 18.8 °C 6.0 °C 1014.1 hPa NNE 6.4 km/h 14.5 km/h 43 % 0.0 mm 475 W/m2
17:45 18.7 °C 7.2 °C 1014.1 hPa North 6.4 km/h 17.7 km/h 47 % 0.0 mm 388 W/m2
17:50 18.5 °C 6.0 °C 1014.1 hPa NE 6.4 km/h 17.7 km/h 44 % 0.0 mm 301 W/m2
17:55 18.5 °C 6.3 °C 1014.1 hPa NNE 11.3 km/h 16.1 km/h 45 % 0.0 mm 480 W/m2
18:00 18.7 °C 7.2 °C 1014.1 hPa Calm   16.1 km/h 47 % 0.0 mm 499 W/m2
18:05 18.6 °C 6.7 °C 1014.1 hPa Calm   14.5 km/h 46 % 0.0 mm 485 W/m2
18:10 18.7 °C 6.2 °C 1014.1 hPa NE 1.6 km/h 14.5 km/h 44 % 0.0 mm 457 W/m2
18:15 18.7 °C 7.1 °C 1014.1 hPa NNE 8.0 km/h 14.5 km/h 47 % 0.0 mm 417 W/m2
18:25 18.6 °C 7.1 °C 1014.1 hPa Calm   14.5 km/h 47 % 0.0 mm 396 W/m2
18:30 18.8 °C 6.9 °C 1014.1 hPa North 12.9 km/h 16.1 km/h 46 % 0.0 mm 360 W/m2
18:35 18.1 °C 7.8 °C 1014.1 hPa WNW 3.2 km/h 16.1 km/h 51 % 0.0 mm 348 W/m2
18:40 17.6 °C 9.2 °C 1013.8 hPa WNW 4.8 km/h 16.1 km/h 58 % 0.0 mm 334 W/m2
18:45 17.3 °C 9.0 °C 1013.8 hPa WSW 1.6 km/h 11.3 km/h 58 % 0.0 mm 302 W/m2
18:50 16.9 °C 9.4 °C 1013.8 hPa West 14.5 km/h 14.5 km/h 61 % 0.0 mm 285 W/m2
18:55 16.4 °C 9.8 °C 1013.8 hPa WNW 9.7 km/h 14.5 km/h 65 % 0.0 mm 274 W/m2
19:00 16.1 °C 9.8 °C 1013.8 hPa WNW 9.7 km/h 16.1 km/h 66 % 0.0 mm 262 W/m2
19:05 15.7 °C 10.0 °C 1013.8 hPa WSW 3.2 km/h 16.1 km/h 69 % 0.0 mm 244 W/m2
19:10 15.8 °C 10.1 °C 1013.8 hPa West 4.8 km/h 12.9 km/h 69 % 0.0 mm 234 W/m2
19:15 15.8 °C 10.1 °C 1013.8 hPa West 4.8 km/h 11.3 km/h 69 % 0.0 mm 146 W/m2
19:20 15.6 °C 9.9 °C 1013.8 hPa WSW 9.7 km/h 11.3 km/h 69 % 0.0 mm 77 W/m2
19:25 15.6 °C 9.9 °C 1013.8 hPa West 4.8 km/h 11.3 km/h 69 % 0.0 mm 104 W/m2
19:30 15.6 °C 9.7 °C 1013.8 hPa WSW 6.4 km/h 11.3 km/h 68 % 0.0 mm 130 W/m2
19:35 15.4 °C 9.5 °C 1013.4 hPa WSW 4.8 km/h 9.7 km/h 68 % 0.0 mm 97 W/m2
19:40 15.2 °C 9.6 °C 1013.4 hPa West 6.4 km/h 9.7 km/h 69 % 0.0 mm 67 W/m2
19:45 15.0 °C 9.6 °C 1013.4 hPa West 6.4 km/h 9.7 km/h 70 % 0.0 mm 97 W/m2
19:50 15.0 °C 9.8 °C 1013.4 hPa WNW 8.0 km/h 16.1 km/h 71 % 0.0 mm 97 W/m2
19:55 14.9 °C 9.5 °C 1013.4 hPa SW 4.8 km/h 16.1 km/h 70 % 0.0 mm 137 W/m2
20:00 15.1 °C 9.6 °C 1013.4 hPa West 4.8 km/h 12.9 km/h 70 % 0.0 mm 128 W/m2
20:10 15.2 °C 9.3 °C 1013.4 hPa WNW 3.2 km/h 14.5 km/h 68 % 0.0 mm 70 W/m2
20:15 15.0 °C 9.4 °C 1013.4 hPa NW 3.2 km/h 14.5 km/h 69 % 0.0 mm 56 W/m2
20:20 14.8 °C 9.2 °C 1013.4 hPa WNW 3.2 km/h 11.3 km/h 69 % 0.0 mm 51 W/m2
20:30 14.6 °C 9.1 °C 1013.4 hPa WNW 1.6 km/h 9.7 km/h 70 % 0.0 mm 35 W/m2
20:35 14.2 °C 8.8 °C 1013.4 hPa NNE 6.4 km/h 9.7 km/h 70 % 0.0 mm 26 W/m2
20:40 13.9 °C 8.5 °C 1013.4 hPa NW 4.8 km/h 16.1 km/h 70 % 0.0 mm 25 W/m2
20:45 13.7 °C 8.1 °C 1013.4 hPa NNW 6.4 km/h 16.1 km/h 69 % 0.0 mm 21 W/m2
20:50 13.4 °C 7.7 °C 1013.4 hPa Calm   14.5 km/h 68 % 0.0 mm 18 W/m2
20:55 13.1 °C 7.8 °C 1013.4 hPa NW 1.6 km/h 11.3 km/h 70 % 0.0 mm 12 W/m2
21:00 12.9 °C 7.8 °C 1013.4 hPa WNW 1.6 km/h 11.3 km/h 71 % 0.0 mm 9 W/m2
21:05 12.7 °C 7.8 °C 1013.4 hPa WNW 4.8 km/h 11.3 km/h 72 % 0.0 mm 5 W/m2
21:10 12.6 °C 8.0 °C 1013.4 hPa Calm   9.7 km/h 74 % 0.0 mm 0 W/m2
21:15 12.3 °C 7.8 °C 1013.4 hPa NW 3.2 km/h 9.7 km/h 74 % 0.0 mm 0 W/m2
21:20 12.1 °C 7.8 °C 1013.4 hPa NW 3.2 km/h 12.9 km/h 75 % 0.0 mm 0 W/m2
21:25 12.0 °C 7.9 °C 1013.4 hPa Calm   12.9 km/h 76 % 0.0 mm 0 W/m2
21:30 11.7 °C 7.6 °C 1013.4 hPa NW 1.6 km/h 11.3 km/h 76 % 0.0 mm 0 W/m2
21:35 11.6 °C 7.7 °C 1013.4 hPa Calm   11.3 km/h 77 % 0.0 mm 0 W/m2
21:40 11.4 °C 7.7 °C 1013.4 hPa North 1.6 km/h 8.0 km/h 78 % 0.0 mm 0 W/m2
21:45 11.3 °C 7.8 °C 1013.4 hPa NNW 1.6 km/h 8.0 km/h 79 % 0.0 mm 0 W/m2
21:50 11.1 °C 7.6 °C 1013.4 hPa Calm   8.0 km/h 79 % 0.0 mm 0 W/m2
21:55 10.9 °C 7.8 °C 1013.4 hPa Calm   9.7 km/h 81 % 0.0 mm 0 W/m2
22:00 10.7 °C 7.5 °C 1013.4 hPa NNW 3.2 km/h 11.3 km/h 81 % 0.0 mm 0 W/m2
22:05 10.6 °C 7.6 °C 1013.8 hPa NNW 4.8 km/h 11.3 km/h 82 % 0.0 mm 0 W/m2
22:10 10.4 °C 7.7 °C 1013.8 hPa NNW 1.6 km/h 6.4 km/h 83 % 0.0 mm 0 W/m2
22:15 10.3 °C 7.6 °C 1013.8 hPa North 4.8 km/h 6.4 km/h 83 % 0.0 mm 0 W/m2
22:20 10.2 °C 7.6 °C 1013.8 hPa Calm   6.4 km/h 84 % 0.0 mm 0 W/m2
22:25 10.2 °C 7.6 °C 1013.8 hPa Calm   6.4 km/h 84 % 0.0 mm 0 W/m2
22:30 10.2 °C 7.8 °C 1013.8 hPa NW 3.2 km/h 4.8 km/h 85 % 0.0 mm 0 W/m2
22:35 10.1 °C 7.6 °C 1013.8 hPa Calm   6.4 km/h 85 % 0.0 mm 0 W/m2
22:40 9.9 °C 7.7 °C 1013.8 hPa NNW 4.8 km/h 6.4 km/h 86 % 0.0 mm 0 W/m2
22:45 9.9 °C 7.7 °C 1013.8 hPa North 1.6 km/h 9.7 km/h 86 % 0.0 mm 0 W/m2
22:50 9.9 °C 7.7 °C 1013.8 hPa NNE 6.4 km/h 9.7 km/h 86 % 0.0 mm 0 W/m2
22:55 9.9 °C 7.7 °C 1013.8 hPa North 4.8 km/h 9.7 km/h 86 % 0.0 mm 0 W/m2
23:00 10.1 °C 7.5 °C 1013.8 hPa NNE 8.0 km/h 11.3 km/h 84 % 0.0 mm 0 W/m2
23:05 10.2 °C 7.3 °C 1013.8 hPa North 3.2 km/h 11.3 km/h 82 % 0.0 mm 0 W/m2
23:10 10.1 °C 7.1 °C 1013.8 hPa North 1.6 km/h 9.7 km/h 82 % 0.0 mm 0 W/m2
23:15 9.9 °C 7.0 °C 1013.8 hPa Calm   9.7 km/h 82 % 0.0 mm 0 W/m2
23:20 10.0 °C 6.9 °C 1013.8 hPa North 9.7 km/h 9.7 km/h 81 % 0.0 mm 0 W/m2
23:25 10.0 °C 6.9 °C 1013.8 hPa NNW 8.0 km/h 9.7 km/h 81 % 0.0 mm 0 W/m2
23:30 10.1 °C 6.8 °C 1013.8 hPa North 1.6 km/h 11.3 km/h 80 % 0.0 mm 0 W/m2
23:35 10.0 °C 6.7 °C 1013.8 hPa North 8.0 km/h 11.3 km/h 80 % 0.0 mm 0 W/m2
23:40 10.1 °C 6.6 °C 1013.8 hPa Calm   11.3 km/h 79 % 0.0 mm 0 W/m2
23:45 10.1 °C 6.6 °C 1013.8 hPa NE 3.2 km/h 11.3 km/h 79 % 0.0 mm 0 W/m2
23:50 10.0 °C 6.3 °C 1013.8 hPa NE 1.6 km/h 9.7 km/h 78 % 0.0 mm 0 W/m2
23:55 10.0 °C 6.3 °C 1013.8 hPa North 4.8 km/h 6.4 km/h 78 % 0.0 mm 0 W/m2
Avec l'autorisation de Weather Underground - 1.75 mb